Flag for Liberia Weather past 2 weeks in Kakata, Liberia

Now
88 °F

Partly sunny.


Feels Like: 91 °F
Forecast: N/A
Wind: 3 mph from Southwest

Location: Roberts Field

Current Time: Dec 27, 2014 at 3:07:23 PM

Latest Report: Dec 27, 2014 at 2:30 PM


Visibility: 6 mi

Pressure: 29.83 "Hg

Humidity: 52%

Dew point: 68 °F

Location of KakataLocation

Historic Weather in Kakata — Graph

°F

Kakata temperature yesterday

Maximum temperature yesterday: 91 °F (at 3:30 PM)
Minimum temperature yesterday: 75 °F (at 12:00 AM)
Average temperature yesterday: 82 °F

Past Weeks' High & Low Weather Summary

 TemperatureHumidityPressure
High91 °F (Dec 23, 2:00 PM)100% (Dec 17, 6:00 AM)30.01 "Hg (Dec 17, 6:00 AM)
Low70 °F (Dec 27, 7:00 AM)41% (Dec 13, 3:30 PM)29.77 "Hg (Dec 12, 4:30 PM)
Average81 °F82%29.89 "Hg
* Reported Dec 12 2:00 PM — Dec 27 2:00 PM, Kakata, Weather by CustomWeather, © 2014

Note: Actual official high and low records may vary slightly from our data, if they occured in-between our weather recording intervals... More about our weather records

Advertising

Kakata weather history for previous 24 hours

 ConditionsComfort  
Time TempWeatherWind HumidityBarometerVisibility
2:00 PM
Dec 27
88 °FPartly sunny.No wind59%29.86 "Hg6 mi
1:30 PM88 °FPartly sunny.6 mph62%29.86 "Hg6 mi
1:00 PM88 °FPartly sunny.No wind62%29.89 "Hg6 mi
12:30 PM86 °FPartly sunny.3 mph70%29.89 "Hg6 mi
12:00 PM88 °FPartly sunny.6 mph66%29.92 "Hg6 mi
11:30 AM86 °FPartly sunny.5 mph75%29.95 "Hg6 mi
11:00 AM84 °FPartly sunny.7 mph74%29.95 "Hg6 mi
10:30 AM81 °FScattered clouds.7 mph84%29.95 "Hg5 mi
10:00 AM79 °FScattered clouds.7 mph84%29.95 "Hg4 mi
9:30 AM75 °FFog.7 mph94%29.95 "Hg3 mi
9:00 AM73 °FFog.5 mph94%29.95 "Hg2 mi
8:30 AM73 °FFog.7 mph94%29.95 "Hg1 mi
8:00 AM72 °FLow clouds.6 mph94%29.95 "Hg1 mi
7:30 AM72 °FLow clouds.6 mph94%29.92 "Hg1 mi
7:00 AM70 °FLow clouds.5 mph100%29.92 "Hg1 mi
6:00 AM73 °FPassing clouds.5 mph94%29.89 "Hg4 mi
5:30 AM73 °FPassing clouds.6 mph94%29.89 "Hg4 mi
5:00 AM73 °FPassing clouds.5 mph94%29.89 "Hg4 mi
4:30 AM73 °FPassing clouds.5 mph94%29.89 "Hg4 mi
3:30 AM73 °FPassing clouds.3 mph94%29.86 "Hg4 mi
3:00 AM73 °FPassing clouds.6 mph94%29.86 "Hg4 mi
2:00 AM73 °FPassing clouds.No wind94%29.89 "Hg4 mi
1:30 AM73 °FPassing clouds.No wind94%29.89 "Hg4 mi
12:30 AM73 °FPassing clouds.No wind94%29.92 "Hg4 mi
12:00 AM75 °FPassing clouds.No wind94%29.92 "Hg4 mi
11:30 PM
Dec 26
75 °FPassing clouds.No wind94%29.92 "Hg4 mi
11:00 PM75 °FPassing clouds.No wind94%29.92 "Hg4 mi
8:30 PM77 °FPassing clouds.No wind94%29.89 "Hg4 mi
8:00 PM79 °FPassing clouds.No wind89%29.89 "Hg4 mi
7:30 PM79 °FPassing clouds.No wind79%29.86 "Hg4 mi
7:00 PM81 °FPassing clouds.3 mph84%29.86 "Hg4 mi
6:30 PM86 °FPartly sunny.No wind62%29.86 "Hg5 mi
6:00 PM88 °FPassing clouds.No wind52%29.86 "Hg6 mi
5:30 PM90 °FPassing clouds.6 mph52%29.83 "Hg6 mi
5:00 PM90 °FPassing clouds.6 mph49%29.83 "Hg6 mi
4:30 PM91 °FPassing clouds.7 mph49%29.83 "Hg6 mi
4:00 PM91 °FPassing clouds.9 mph46%29.83 "Hg6 mi
3:30 PM91 °FPassing clouds.10 mph46%29.83 "Hg6 mi
3:00 PM90 °FPassing clouds.12 mph43%29.86 "Hg6 mi
Weather by CustomWeather, © 2014

See weather overviewHow to use our weather pages